User: anonymous   Login
Location: Mascot Post Office (historical)
(40.2645°N, 99.5462°W)
Time: 14:00:33
(UTC+00:00)
Language:

Cosmos 1400 Rocket - Orbit

View from above orbital plane
View from above orbital plane
View from above satellite
View from above satellite

Ground track
Ground track

The orbit data is extracted from the following two-line orbital elements,

1 13403U 82079B   20262.87957849 -.00000322 +00000-0 -22693-4 0  9991
2 13403 081.1720 345.9463 0031955 315.9052 043.9624 15.07211242075683
Epoch (UTC): 18 September 2020 21:06:35
Eccentricity: 0.0031955
inclination: 81.1720°
perigee height: 522 km
apogee height: 567 km
right ascension of ascending node: 345.9463°
argument of perigee: 315.9052°
revolutions per day: 15.07211242
mean anomaly at epoch: 43.9624°
orbit number at epoch: 7568

The dashed part of the orbit path shows where the satellite is in the earth's shadow,  

DLR